Fernwood, MS

2:57 AM CST on December 04, 2016 (GMT -0600)
McComb-Pike County-Lewis

Weather History for KMCB - March, 2012

Change the Weather History Date:

Tuesday, March 20, 2012

  Actual Average Record
Temperature  
Mean Temperature 72 °F -  
Max Temperature 78 °F 70 °F 87 °F (2004)
Min Temperature 66 °F 47 °F 23 °F (1965)
Cooling Degree Days 7    
Growing Degree Days 22 (Base 50)    
Moisture  
Dew Point 65 °F    
Average Humidity 82    
Maximum Humidity 96    
Minimum Humidity 62    
Precipitation  
Precipitation 0.02 in - - ()
Sea Level Pressure  
Sea Level Pressure 29.90 in    
Wind  
Wind Speed 12 mph (SE)    
Max Wind Speed 24 mph    
Max Gust Speed 40 mph    
Visibility 9 miles    
Events Rain    
Averages and records for this station are not official NWS values.
T = Trace of Precipitation, MM = Missing Value Source: NWS Daily Summary

Daily Weather History Graph

Daily Weather History Graph

Search for Another Location

Airport or City:

Trip Planner

Search our weather history database for the weather conditions in past years. The results will help you decide how hot, cold, wet, or windy it might be!

Date:

Astronomy

Mar. 20, 2012 Rise Set
Actual Time 7:05 AM CDT 7:13 PM CDT
Civil Twilight 6:40 AM CDT 7:37 PM CDT
Nautical Twilight 6:12 AM CDT 8:06 PM CDT
Astronomical Twilight 5:44 AM CDT 8:34 PM CDT
Moon 5:42 AM CDT (3/20) 5:45 PM CDT (3/20)
Length of Visible Light 12h 57m
Length of Day
12h 08m
Waning Crescent, 4% of the Moon is Illuminated
Mar 20
Waning Crescent
Mar 22
New
Mar 30
First Quarter
Apr 6
Full
Apr 13
Last Quarter

Hourly Weather History & Observations

Time (CDT) Temp. Dew Point Humidity Pressure Visibility Wind Dir Wind Speed Gust Speed Precip Events Conditions
12:02 AM 69.8 °F 64.4 °F 83% 29.94 in 10.0 mi SSE 16.1 mph 23.0 mph N/A   Overcast
12:53 AM 69.1 °F 64.9 °F 87% 29.93 in 10.0 mi SSE 12.7 mph 24.2 mph N/A   Overcast
1:53 AM 69.1 °F 64.9 °F 87% 29.92 in 10.0 mi SE 11.5 mph 20.7 mph N/A   Overcast
2:53 AM 68.0 °F 64.9 °F 90% 29.90 in 10.0 mi SE 9.2 mph - N/A   Overcast
3:53 AM 66.9 °F 64.9 °F 93% 29.89 in 6.0 mi SE 6.9 mph - N/A   Overcast
4:18 AM 66.2 °F 64.4 °F 94% 29.90 in 7.0 mi SE 5.8 mph - N/A   Overcast
4:53 AM 66.0 °F 64.9 °F 96% 29.88 in 5.0 mi SE 5.8 mph - N/A   Overcast
5:53 AM 66.0 °F 64.9 °F 96% 29.89 in 4.0 mi SE 5.8 mph - N/A   Overcast
6:53 AM 66.9 °F 64.9 °F 93% 29.90 in 5.0 mi SE 4.6 mph - N/A   Overcast
7:05 AM 66.2 °F 64.4 °F 94% 29.91 in 6.0 mi SE 5.8 mph - N/A   Overcast
7:35 AM 68.0 °F 64.4 °F 88% 29.91 in 7.0 mi SE 6.9 mph - N/A   Overcast
8:53 AM 70.0 °F 66.0 °F 87% 29.91 in 10.0 mi SSE 11.5 mph 20.7 mph N/A   Overcast
9:53 AM 72.0 °F 66.9 °F 84% 29.93 in 10.0 mi SSE 13.8 mph 21.9 mph N/A   Overcast
10:53 AM 73.9 °F 66.0 °F 76% 29.93 in 10.0 mi SSE 15.0 mph 25.3 mph N/A   Overcast
11:02 AM 73.4 °F 66.2 °F 78% 29.95 in 9.0 mi SSE 12.7 mph 28.8 mph 0.00 in Rain Light Rain
11:31 AM 73.4 °F 66.2 °F 78% 29.95 in 8.0 mi South 13.8 mph - 0.01 in Rain Light Rain
11:53 AM 77.0 °F 66.9 °F 71% 29.93 in 10.0 mi SSE 16.1 mph 24.2 mph 0.01 in   Mostly Cloudy
12:53 PM 77.0 °F 64.0 °F 64% 29.91 in 10.0 mi SSE 17.3 mph 40.3 mph N/A   Mostly Cloudy
1:53 PM 78.1 °F 64.0 °F 62% 29.89 in 10.0 mi SSE 24.2 mph 34.5 mph 0.00 in   Scattered Clouds
2:53 PM 77.0 °F 63.0 °F 62% 29.88 in 10.0 mi SSE 20.7 mph 27.6 mph 0.01 in   Partly Cloudy
3:53 PM 75.9 °F 63.0 °F 64% 29.87 in 10.0 mi SSE 17.3 mph 31.1 mph N/A   Mostly Cloudy
5:53 PM 73.9 °F 64.9 °F 73% 29.87 in 10.0 mi SE 10.4 mph 25.3 mph N/A   Mostly Cloudy
6:53 PM 72.0 °F 64.9 °F 78% 29.87 in 10.0 mi SE 13.8 mph 18.4 mph N/A   Overcast
7:15 PM 71.6 °F 64.4 °F 78% 29.88 in 10.0 mi SE 10.4 mph 21.9 mph N/A   Mostly Cloudy
7:22 PM 71.6 °F 64.4 °F 78% 29.88 in 10.0 mi SSE 11.5 mph 21.9 mph N/A   Mostly Cloudy
8:53 PM 70.0 °F 66.0 °F 87% 29.88 in 9.0 mi SE 10.4 mph 18.4 mph N/A   Mostly Cloudy
9:04 PM 69.8 °F 66.2 °F 88% 29.90 in 8.0 mi SE 10.4 mph - N/A   Mostly Cloudy
9:53 PM 70.0 °F 64.9 °F 84% 29.89 in 10.0 mi SE 11.5 mph 21.9 mph N/A   Overcast
10:53 PM 70.0 °F 64.9 °F 84% 29.91 in 10.0 mi SE 11.5 mph 19.6 mph N/A   Overcast
11:53 PM 70.0 °F 64.9 °F 84% 29.89 in 10.0 mi SE 9.2 mph - N/A   Overcast